Time,TemperatureF,DewpointF,PressureIn,WindDirection,WindDirectionDegrees,WindSpeedMPH,WindSpeedGustMPH,Humidity,HourlyPrecipIn,Conditions,Clouds,dailyrainin,SoftwareType,DateUTC
2013-12-13 00:02:00,53.6,48.2,29.93,SSW,202,4.0,4.0,82,0.01,,,0.39,meteohub,2013-12-13 00:02:00,
2013-12-13 00:07:00,53.4,48.4,29.93,SSW,202,0.0,4.0,83,0.02,,,0.01,meteohub,2013-12-13 00:07:00,
2013-12-13 00:12:00,53.2,48.2,29.93,SSW,202,0.0,4.0,83,0.03,,,0.02,meteohub,2013-12-13 00:12:00,
2013-12-13 00:17:00,53.4,48.7,29.93,South,180,6.0,7.0,84,0.03,,,0.02,meteohub,2013-12-13 00:17:00,
2013-12-13 00:22:00,53.2,48.6,29.93,South,180,0.0,7.0,84,0.03,,,0.02,meteohub,2013-12-13 00:22:00,
2013-12-13 00:27:00,53.2,48.6,29.90,SSE,158,0.0,7.0,84,0.03,,,0.02,meteohub,2013-12-13 00:27:00,
2013-12-13 00:33:00,53.2,48.6,29.90,SSW,202,0.0,7.0,84,0.03,,,0.02,meteohub,2013-12-13 00:33:00,
2013-12-13 00:38:00,53.2,48.6,29.90,SSW,202,1.0,5.0,84,0.02,,,0.02,meteohub,2013-12-13 00:38:00,
2013-12-13 00:43:00,53.2,48.6,29.90,SSW,202,0.0,6.0,84,0.02,,,0.02,meteohub,2013-12-13 00:43:00,
2013-12-13 00:48:00,53.2,48.6,29.90,South,180,9.0,10.0,84,0.02,,,0.02,meteohub,2013-12-13 00:48:00,
2013-12-13 00:53:00,53.2,48.6,29.90,SW,225,10.0,13.0,84,0.02,,,0.02,meteohub,2013-12-13 00:53:00,
2013-12-13 00:58:00,53.2,48.6,29.93,SSW,202,7.0,13.0,84,0.02,,,0.02,meteohub,2013-12-13 00:58:00,
2013-12-13 01:03:00,53.4,48.4,29.93,SW,225,5.0,13.0,83,0.02,,,0.02,meteohub,2013-12-13 01:03:00,
2013-12-13 01:08:00,53.6,48.2,29.93,SSW,202,7.0,11.0,82,0.01,,,0.02,meteohub,2013-12-13 01:08:00,
2013-12-13 01:13:00,53.6,48.2,29.90,SSW,202,4.0,11.0,82,0.00,,,0.02,meteohub,2013-12-13 01:13:00,
2013-12-13 01:19:00,53.6,47.8,29.90,SW,225,5.0,8.0,81,0.00,,,0.02,meteohub,2013-12-13 01:19:00,
2013-12-13 01:24:00,53.8,48.0,29.90,SW,225,0.0,7.0,81,0.00,,,0.02,meteohub,2013-12-13 01:24:00,
2013-12-13 01:29:00,53.8,48.0,29.90,SW,225,1.0,6.0,81,0.00,,,0.02,meteohub,2013-12-13 01:29:00,
2013-12-13 01:34:00,53.8,47.8,29.90,SSW,202,6.0,7.0,80,0.00,,,0.02,meteohub,2013-12-13 01:34:00,
2013-12-13 01:39:00,54.0,47.7,29.90,SSW,202,8.0,8.0,79,0.00,,,0.02,meteohub,2013-12-13 01:39:00,
2013-12-13 01:44:00,54.1,47.5,29.90,SW,225,0.0,8.0,78,0.00,,,0.02,meteohub,2013-12-13 01:44:00,
2013-12-13 01:49:00,54.1,47.5,29.90,SSW,202,0.0,13.0,78,0.00,,,0.02,meteohub,2013-12-13 01:49:00,
2013-12-13 01:54:00,54.1,47.5,29.90,South,180,0.0,13.0,78,0.00,,,0.02,meteohub,2013-12-13 01:54:00,
2013-12-13 01:59:00,54.1,47.5,29.90,SW,225,0.0,13.0,78,0.00,,,0.02,meteohub,2013-12-13 01:59:00,
2013-12-13 02:04:00,54.0,47.3,29.90,SSW,202,0.0,3.0,78,0.00,,,0.02,meteohub,2013-12-13 02:04:00,
2013-12-13 02:09:00,54.0,47.3,29.90,SW,225,0.0,0.0,78,0.00,,,0.02,meteohub,2013-12-13 02:09:00,
2013-12-13 02:14:00,54.0,47.3,29.90,SSW,202,0.0,0.0,78,0.00,,,0.02,meteohub,2013-12-13 02:14:00,
2013-12-13 02:19:00,54.0,47.3,29.90,SW,225,0.0,0.0,78,0.00,,,0.02,meteohub,2013-12-13 02:19:00,
2013-12-13 02:24:00,53.8,47.1,29.90,SSW,202,0.0,0.0,78,0.00,,,0.02,meteohub,2013-12-13 02:24:00,
2013-12-13 02:29:00,53.8,47.1,29.90,SW,225,0.0,2.0,78,0.00,,,0.02,meteohub,2013-12-13 02:29:00,
2013-12-13 02:34:00,53.8,47.1,29.90,SSW,202,0.0,2.0,78,0.00,,,0.02,meteohub,2013-12-13 02:34:00,
2013-12-13 02:39:00,53.8,47.1,29.90,SW,225,0.0,2.0,78,0.00,,,0.02,meteohub,2013-12-13 02:39:00,
2013-12-13 02:45:00,53.8,47.1,29.90,West,270,0.0,2.0,78,0.00,,,0.02,meteohub,2013-12-13 02:45:00,
2013-12-13 02:50:00,53.6,46.9,29.90,West,270,0.0,2.0,78,0.00,,,0.02,meteohub,2013-12-13 02:50:00,
2013-12-13 02:55:00,53.6,46.9,29.87,WNW,292,0.0,0.0,78,0.00,,,0.02,meteohub,2013-12-13 02:55:00,
2013-12-13 03:00:00,53.6,46.9,29.87,WSW,248,0.0,0.0,78,0.00,,,0.02,meteohub,2013-12-13 03:00:00,
2013-12-13 03:05:00,53.4,47.1,29.87,WNW,292,0.0,0.0,79,0.00,,,0.02,meteohub,2013-12-13 03:05:00,
2013-12-13 03:10:00,53.4,47.1,29.87,SE,135,0.0,0.0,79,0.00,,,0.02,meteohub,2013-12-13 03:10:00,
2013-12-13 03:15:00,53.4,47.1,29.87,SSW,202,5.0,6.0,79,0.00,,,0.02,meteohub,2013-12-13 03:15:00,
2013-12-13 03:20:00,53.6,47.7,29.87,SSW,202,10.0,10.0,80,0.00,,,0.02,meteohub,2013-12-13 03:20:00,
2013-12-13 03:25:00,54.0,48.0,29.87,South,180,13.0,16.0,80,0.01,,,0.03,meteohub,2013-12-13 03:25:00,
2013-12-13 03:30:00,54.3,47.7,29.87,South,180,16.0,20.0,78,0.01,,,0.03,meteohub,2013-12-13 03:30:00,
2013-12-13 03:35:00,54.3,47.3,29.87,SSW,202,12.0,20.0,77,0.01,,,0.03,meteohub,2013-12-13 03:35:00,
2013-12-13 03:40:00,54.3,47.3,29.87,SSW,202,5.0,20.0,77,0.01,,,0.03,meteohub,2013-12-13 03:40:00,
2013-12-13 03:45:00,54.5,47.1,29.87,SSW,202,0.0,15.0,76,0.01,,,0.03,meteohub,2013-12-13 03:45:00,
2013-12-13 03:50:00,54.3,46.6,29.87,SSW,202,2.0,15.0,75,0.01,,,0.03,meteohub,2013-12-13 03:50:00,
2013-12-13 03:55:00,54.3,46.6,29.87,SSW,202,0.0,11.0,75,0.01,,,0.03,meteohub,2013-12-13 03:55:00,
2013-12-13 04:00:00,54.3,46.6,29.87,SSW,202,7.0,11.0,75,0.01,,,0.03,meteohub,2013-12-13 04:00:00,
2013-12-13 04:06:00,54.3,46.6,29.87,SSW,202,6.0,10.0,75,0.01,,,0.03,meteohub,2013-12-13 04:06:00,
2013-12-13 04:11:00,54.3,46.6,29.87,South,180,8.0,13.0,75,0.01,,,0.03,meteohub,2013-12-13 04:11:00,
2013-12-13 04:16:00,54.3,46.6,29.87,SSW,202,6.0,13.0,75,0.01,,,0.03,meteohub,2013-12-13 04:16:00,
2013-12-13 04:21:00,54.1,46.4,29.87,South,180,11.0,13.0,75,0.01,,,0.03,meteohub,2013-12-13 04:21:00,
2013-12-13 04:26:00,54.1,46.8,29.87,SSE,158,11.0,15.0,76,0.00,,,0.03,meteohub,2013-12-13 04:26:00,
2013-12-13 04:31:00,54.0,46.9,29.87,South,180,19.0,19.0,77,0.00,,,0.03,meteohub,2013-12-13 04:31:00,
2013-12-13 04:36:00,54.0,47.3,29.87,SSW,202,13.0,20.0,78,0.00,,,0.03,meteohub,2013-12-13 04:36:00,
2013-12-13 04:41:00,54.0,47.7,29.84,SSW,202,11.0,20.0,79,0.00,,,0.03,meteohub,2013-12-13 04:41:00,
2013-12-13 04:46:00,53.8,47.5,29.84,South,180,9.0,20.0,79,0.00,,,0.03,meteohub,2013-12-13 04:46:00,
2013-12-13 04:51:00,53.6,47.3,29.84,South,180,10.0,13.0,79,0.00,,,0.03,meteohub,2013-12-13 04:51:00,
2013-12-13 04:56:00,53.6,47.7,29.84,South,180,12.0,13.0,80,0.00,,,0.03,meteohub,2013-12-13 04:56:00,
2013-12-13 05:01:00,53.4,47.7,29.84,SSW,202,6.0,13.0,81,0.00,,,0.03,meteohub,2013-12-13 05:01:00,
2013-12-13 05:02:00,53.4,47.7,29.84,SW,225,6.0,13.0,81,0.00,,,0.03,meteohub,2013-12-13 05:02:00,
2013-12-13 05:03:00,53.4,47.7,29.84,SW,225,6.0,13.0,81,0.00,,,0.03,meteohub,2013-12-13 05:03:00,
2013-12-13 05:07:00,53.4,47.7,29.84,South,180,8.0,12.0,81,0.00,,,0.03,meteohub,2013-12-13 05:07:00,
2013-12-13 05:10:00,53.2,47.5,29.84,South,180,6.0,12.0,81,0.00,,,0.03,meteohub,2013-12-13 05:10:00,
2013-12-13 05:11:00,53.2,47.5,29.84,South,180,11.0,12.0,81,0.00,,,0.03,meteohub,2013-12-13 05:11:00,
2013-12-13 05:16:00,53.2,47.5,29.84,South,180,11.0,11.0,81,0.00,,,0.03,meteohub,2013-12-13 05:16:00,
2013-12-13 05:21:00,53.2,47.8,29.84,South,180,13.0,15.0,82,0.00,,,0.03,meteohub,2013-12-13 05:21:00,
2013-12-13 05:26:00,53.2,47.8,29.84,South,180,20.0,20.0,82,0.00,,,0.03,meteohub,2013-12-13 05:26:00,
2013-12-13 05:32:00,53.1,47.7,29.84,South,180,20.0,24.0,82,0.00,,,0.03,meteohub,2013-12-13 05:32:00,
2013-12-13 05:37:00,53.1,47.7,29.84,SSW,202,11.0,24.0,82,0.00,,,0.03,meteohub,2013-12-13 05:37:00,
2013-12-13 05:42:00,53.1,47.5,29.81,SSW,202,3.0,24.0,81,0.00,,,0.03,meteohub,2013-12-13 05:42:00,
2013-12-13 05:47:00,53.1,47.5,29.81,SSW,202,8.0,20.0,81,0.00,,,0.03,meteohub,2013-12-13 05:47:00,
2013-12-13 05:52:00,53.2,47.5,29.81,SSE,158,7.0,15.0,81,0.00,,,0.03,meteohub,2013-12-13 05:52:00,
2013-12-13 05:57:00,53.2,47.5,29.84,South,180,15.0,15.0,81,0.00,,,0.03,meteohub,2013-12-13 05:57:00,
2013-12-13 06:02:00,53.1,47.1,29.84,South,180,14.0,15.0,80,0.00,,,0.03,meteohub,2013-12-13 06:02:00,
2013-12-13 06:07:00,53.1,47.1,29.84,SSE,158,10.0,15.0,80,0.00,,,0.03,meteohub,2013-12-13 06:07:00,
2013-12-13 06:12:00,53.1,47.1,29.84,South,180,14.0,15.0,80,0.00,,,0.03,meteohub,2013-12-13 06:12:00,
2013-12-13 06:17:00,53.1,47.1,29.84,South,180,11.0,17.0,80,0.00,,,0.03,meteohub,2013-12-13 06:17:00,
2013-12-13 06:22:00,53.1,47.1,29.84,South,180,17.0,17.0,80,0.00,,,0.03,meteohub,2013-12-13 06:22:00,
2013-12-13 06:27:00,52.9,46.9,29.81,South,180,17.0,17.0,80,0.00,,,0.03,meteohub,2013-12-13 06:27:00,
2013-12-13 06:32:00,52.9,46.6,29.81,SSW,202,17.0,19.0,79,0.00,,,0.03,meteohub,2013-12-13 06:32:00,
2013-12-13 06:37:00,52.9,46.6,29.81,South,180,17.0,21.0,79,0.00,,,0.03,meteohub,2013-12-13 06:37:00,
2013-12-13 06:42:00,53.1,46.8,29.81,SSW,202,17.0,21.0,79,0.00,,,0.03,meteohub,2013-12-13 06:42:00,
2013-12-13 06:47:00,53.1,46.8,29.81,South,180,15.0,23.0,79,0.00,,,0.03,meteohub,2013-12-13 06:47:00,
2013-12-13 06:52:00,53.2,46.6,29.81,SSW,202,10.0,23.0,78,0.00,,,0.03,meteohub,2013-12-13 06:52:00,
2013-12-13 06:58:00,53.2,46.6,29.78,South,180,10.0,23.0,78,0.00,,,0.03,meteohub,2013-12-13 06:58:00,
2013-12-13 07:03:00,53.2,46.6,29.78,SSW,202,11.0,22.0,78,0.00,,,0.03,meteohub,2013-12-13 07:03:00,
2013-12-13 07:08:00,53.4,46.4,29.78,SSW,202,14.0,22.0,77,0.00,,,0.03,meteohub,2013-12-13 07:08:00,
2013-12-13 07:13:00,53.4,46.4,29.78,South,180,12.0,17.0,77,0.00,,,0.03,meteohub,2013-12-13 07:13:00,
2013-12-13 07:18:00,53.4,46.4,29.78,South,180,10.0,17.0,77,0.00,,,0.03,meteohub,2013-12-13 07:18:00,
2013-12-13 07:23:00,53.4,46.4,29.78,South,180,11.0,15.0,77,0.00,,,0.03,meteohub,2013-12-13 07:23:00,
2013-12-13 07:28:00,53.6,46.6,29.78,South,180,11.0,15.0,77,0.00,,,0.03,meteohub,2013-12-13 07:28:00,
2013-12-13 07:33:00,53.4,46.4,29.78,South,180,15.0,18.0,77,0.00,,,0.03,meteohub,2013-12-13 07:33:00,
2013-12-13 07:38:00,53.6,46.6,29.78,SSW,202,20.0,20.0,77,0.00,,,0.03,meteohub,2013-12-13 07:38:00,
2013-12-13 07:43:00,53.8,46.8,29.78,South,180,22.0,24.0,77,0.00,,,0.03,meteohub,2013-12-13 07:43:00,
2013-12-13 07:48:00,53.8,46.8,29.78,South,180,13.0,24.0,77,0.00,,,0.03,meteohub,2013-12-13 07:48:00,
2013-12-13 07:53:00,54.0,46.9,29.78,South,180,22.0,24.0,77,0.00,,,0.03,meteohub,2013-12-13 07:53:00,
2013-12-13 07:58:00,54.0,46.9,29.78,South,180,13.0,24.0,77,0.00,,,0.03,meteohub,2013-12-13 07:58:00,
2013-12-13 08:03:00,54.0,46.9,29.78,South,180,17.0,22.0,77,0.00,,,0.03,meteohub,2013-12-13 08:03:00,
2013-12-13 08:08:00,54.0,46.9,29.78,South,180,17.0,22.0,77,0.00,,,0.03,meteohub,2013-12-13 08:08:00,
2013-12-13 08:13:00,54.0,46.9,29.78,South,180,12.0,22.0,77,0.00,,,0.03,meteohub,2013-12-13 08:13:00,
2013-12-13 08:19:00,54.0,46.9,29.78,South,180,16.0,22.0,77,0.00,,,0.03,meteohub,2013-12-13 08:19:00,
2013-12-13 08:24:00,54.0,46.9,29.78,South,180,14.0,18.0,77,0.00,,,0.03,meteohub,2013-12-13 08:24:00,
2013-12-13 08:29:00,54.0,46.9,29.78,South,180,12.0,19.0,77,0.00,,,0.03,meteohub,2013-12-13 08:29:00,
2013-12-13 08:34:00,54.0,46.9,29.78,South,180,22.0,22.0,77,0.00,,,0.03,meteohub,2013-12-13 08:34:00,
2013-12-13 08:39:00,54.0,46.9,29.78,South,180,26.0,26.0,77,0.00,,,0.03,meteohub,2013-12-13 08:39:00,
2013-12-13 08:44:00,54.0,47.3,29.78,South,180,19.0,26.0,78,0.00,,,0.03,meteohub,2013-12-13 08:44:00,
2013-12-13 08:49:00,54.0,47.3,29.78,South,180,18.0,26.0,78,0.00,,,0.03,meteohub,2013-12-13 08:49:00,
2013-12-13 08:54:00,54.0,47.3,29.78,South,180,15.0,26.0,78,0.00,,,0.03,meteohub,2013-12-13 08:54:00,
2013-12-13 08:59:00,54.0,47.3,29.78,SSW,202,15.0,24.0,78,0.00,,,0.03,meteohub,2013-12-13 08:59:00,
2013-12-13 09:04:00,54.0,47.3,29.78,South,180,17.0,20.0,78,0.00,,,0.03,meteohub,2013-12-13 09:04:00,
2013-12-13 09:09:00,54.0,47.3,29.78,South,180,17.0,20.0,78,0.00,,,0.03,meteohub,2013-12-13 09:09:00,
2013-12-13 09:14:00,54.0,47.3,29.78,South,180,10.0,20.0,78,0.00,,,0.03,meteohub,2013-12-13 09:14:00,
2013-12-13 09:19:00,54.1,47.1,29.78,South,180,11.0,20.0,77,0.00,,,0.03,meteohub,2013-12-13 09:19:00,
2013-12-13 09:24:00,54.1,47.1,29.78,South,180,15.0,19.0,77,0.00,,,0.03,meteohub,2013-12-13 09:24:00,
2013-12-13 09:29:00,54.3,46.9,29.78,South,180,20.0,25.0,76,0.00,,,0.03,meteohub,2013-12-13 09:29:00,
2013-12-13 09:34:00,54.3,46.6,29.78,South,180,17.0,28.0,75,0.00,,,0.03,meteohub,2013-12-13 09:34:00,
2013-12-13 09:40:00,54.3,46.6,29.78,South,180,15.0,28.0,75,0.00,,,0.03,meteohub,2013-12-13 09:40:00,
2013-12-13 09:45:00,54.3,46.6,29.78,South,180,18.0,28.0,75,0.00,,,0.03,meteohub,2013-12-13 09:45:00,
2013-12-13 09:50:00,54.5,46.4,29.78,South,180,22.0,23.0,74,0.00,,,0.03,meteohub,2013-12-13 09:50:00,
2013-12-13 09:55:00,54.5,46.4,29.78,South,180,15.0,29.0,74,0.00,,,0.03,meteohub,2013-12-13 09:55:00,
2013-12-13 10:00:00,54.3,46.2,29.78,South,180,20.0,29.0,74,0.00,,,0.03,meteohub,2013-12-13 10:00:00,
2013-12-13 10:05:00,54.3,46.2,29.78,South,180,22.0,23.0,74,0.00,,,0.03,meteohub,2013-12-13 10:05:00,
2013-12-13 10:10:00,54.5,46.4,29.75,South,180,17.0,23.0,74,0.00,,,0.03,meteohub,2013-12-13 10:10:00,
2013-12-13 10:15:00,54.5,46.4,29.75,South,180,17.0,23.0,74,0.00,,,0.03,meteohub,2013-12-13 10:15:00,
2013-12-13 10:20:00,54.5,46.4,29.75,SSW,202,17.0,24.0,74,0.00,,,0.03,meteohub,2013-12-13 10:20:00,
2013-12-13 10:25:00,54.5,46.4,29.75,South,180,16.0,24.0,74,0.00,,,0.03,meteohub,2013-12-13 10:25:00,
2013-12-13 10:30:00,54.5,46.4,29.75,South,180,19.0,24.0,74,0.00,,,0.03,meteohub,2013-12-13 10:30:00,
2013-12-13 10:35:00,54.7,46.6,29.75,SSE,158,17.0,19.0,74,0.00,,,0.03,meteohub,2013-12-13 10:35:00,
2013-12-13 10:40:00,54.7,46.6,29.75,South,180,18.0,23.0,74,0.00,,,0.03,meteohub,2013-12-13 10:40:00,
2013-12-13 10:45:00,54.7,46.6,29.75,South,180,13.0,23.0,74,0.00,,,0.03,meteohub,2013-12-13 10:45:00,
2013-12-13 10:50:00,54.7,46.6,29.75,South,180,17.0,23.0,74,0.00,,,0.03,meteohub,2013-12-13 10:50:00,
2013-12-13 10:55:00,54.7,46.2,29.75,South,180,13.0,22.0,73,0.00,,,0.03,meteohub,2013-12-13 10:55:00,
2013-12-13 11:00:00,54.7,46.2,29.75,South,180,17.0,22.0,73,0.00,,,0.03,meteohub,2013-12-13 11:00:00,
2013-12-13 11:06:00,54.7,46.2,29.75,South,180,13.0,22.0,73,0.00,,,0.03,meteohub,2013-12-13 11:06:00,
2013-12-13 11:11:00,54.7,46.2,29.75,South,180,11.0,17.0,73,0.00,,,0.03,meteohub,2013-12-13 11:11:00,
2013-12-13 11:16:00,54.5,46.0,29.75,South,180,20.0,20.0,73,0.00,,,0.03,meteohub,2013-12-13 11:16:00,
2013-12-13 11:21:00,54.5,46.0,29.75,SSW,202,19.0,20.0,73,0.00,,,0.03,meteohub,2013-12-13 11:21:00,
2013-12-13 11:26:00,54.5,46.0,29.75,South,180,11.0,24.0,73,0.00,,,0.03,meteohub,2013-12-13 11:26:00,
2013-12-13 11:31:00,54.5,46.4,29.75,South,180,14.0,24.0,74,0.00,,,0.03,meteohub,2013-12-13 11:31:00,
2013-12-13 11:36:00,54.5,46.0,29.75,South,180,11.0,24.0,73,0.00,,,0.03,meteohub,2013-12-13 11:36:00,
2013-12-13 11:41:00,54.5,46.0,29.75,South,180,19.0,19.0,73,0.00,,,0.03,meteohub,2013-12-13 11:41:00,
2013-12-13 11:46:00,54.5,46.0,29.75,South,180,17.0,20.0,73,0.00,,,0.03,meteohub,2013-12-13 11:46:00,
2013-12-13 11:51:00,54.5,46.0,29.75,South,180,13.0,22.0,73,0.00,,,0.03,meteohub,2013-12-13 11:51:00,
2013-12-13 11:56:00,54.5,46.0,29.75,South,180,11.0,22.0,73,0.00,,,0.03,meteohub,2013-12-13 11:56:00,
2013-12-13 12:01:00,54.5,46.0,29.75,South,180,13.0,22.0,73,0.00,,,0.03,meteohub,2013-12-13 12:01:00,
2013-12-13 12:06:00,54.7,45.9,29.75,South,180,13.0,20.0,72,0.00,,,0.03,meteohub,2013-12-13 12:06:00,
2013-12-13 12:11:00,54.5,45.7,29.75,South,180,15.0,20.0,72,0.00,,,0.03,meteohub,2013-12-13 12:11:00,
2013-12-13 12:16:00,54.5,45.7,29.75,South,180,15.0,20.0,72,0.00,,,0.03,meteohub,2013-12-13 12:16:00,
2013-12-13 12:21:00,54.5,45.7,29.75,South,180,15.0,19.0,72,0.00,,,0.03,meteohub,2013-12-13 12:21:00,
2013-12-13 12:27:00,54.5,45.7,29.75,South,180,13.0,19.0,72,0.00,,,0.03,meteohub,2013-12-13 12:27:00,
2013-12-13 12:31:00,54.5,45.7,29.75,South,180,15.0,19.0,72,0.00,,,0.03,meteohub,2013-12-13 12:31:00,
2013-12-13 12:36:00,54.5,45.7,29.75,SSW,202,11.0,17.0,72,0.00,,,0.03,meteohub,2013-12-13 12:36:00,
2013-12-13 12:41:00,54.7,45.9,29.72,SSW,202,11.0,15.0,72,0.00,,,0.03,meteohub,2013-12-13 12:41:00,
2013-12-13 12:46:00,54.5,45.7,29.72,SSW,202,13.0,15.0,72,0.00,,,0.03,meteohub,2013-12-13 12:46:00,
2013-12-13 12:51:00,54.5,45.7,29.72,South,180,19.0,19.0,72,0.00,,,0.03,meteohub,2013-12-13 12:51:00,
2013-12-13 12:56:00,54.5,45.7,29.72,SSW,202,11.0,19.0,72,0.00,,,0.03,meteohub,2013-12-13 12:56:00,
2013-12-13 13:01:00,54.5,45.7,29.72,South,180,8.0,19.0,72,0.00,,,0.03,meteohub,2013-12-13 13:01:00,
2013-12-13 13:06:00,54.5,45.7,29.72,South,180,8.0,13.0,72,0.00,,,0.03,meteohub,2013-12-13 13:06:00,
2013-12-13 13:11:00,54.3,45.5,29.72,South,180,18.0,18.0,72,0.00,,,0.03,meteohub,2013-12-13 13:11:00,
2013-12-13 13:16:00,54.5,46.0,29.72,South,180,13.0,18.0,73,0.00,,,0.03,meteohub,2013-12-13 13:16:00,
2013-12-13 13:21:00,54.5,46.0,29.72,SSW,202,13.0,18.0,73,0.00,,,0.03,meteohub,2013-12-13 13:21:00,
2013-12-13 13:26:00,54.5,46.0,29.72,SSW,202,11.0,18.0,73,0.00,,,0.03,meteohub,2013-12-13 13:26:00,
2013-12-13 13:31:00,54.5,46.0,29.72,South,180,11.0,17.0,73,0.00,,,0.03,meteohub,2013-12-13 13:31:00,
2013-12-13 13:36:00,54.5,46.4,29.72,SSW,202,13.0,17.0,74,0.00,,,0.03,meteohub,2013-12-13 13:36:00,
2013-12-13 13:41:00,54.3,46.2,29.72,SSW,202,13.0,17.0,74,0.00,,,0.03,meteohub,2013-12-13 13:41:00,
2013-12-13 13:46:00,52.9,44.8,29.72,SW,225,11.0,17.0,74,0.00,,,0.03,meteohub,2013-12-13 13:46:00,
2013-12-13 13:51:00,52.2,43.3,29.72,SSW,202,13.0,17.0,72,0.00,,,0.03,meteohub,2013-12-13 13:51:00,
2013-12-13 13:57:00,52.0,43.9,29.72,SW,225,9.0,14.0,74,0.00,,,0.03,meteohub,2013-12-13 13:57:00,
2013-12-13 14:02:00,51.8,44.1,29.72,SSW,202,8.0,14.0,75,0.00,,,0.03,meteohub,2013-12-13 14:02:00,
2013-12-13 14:07:00,51.4,44.8,29.72,West,270,9.0,14.0,78,0.00,,,0.03,meteohub,2013-12-13 14:07:00,
2013-12-13 14:12:00,51.4,45.1,29.72,WSW,248,6.0,11.0,79,0.00,,,0.03,meteohub,2013-12-13 14:12:00,
2013-12-13 14:17:00,51.4,44.8,29.72,WSW,248,10.0,11.0,78,0.00,,,0.03,meteohub,2013-12-13 14:17:00,
2013-12-13 14:22:00,51.4,44.4,29.72,WSW,248,7.0,11.0,77,0.00,,,0.03,meteohub,2013-12-13 14:22:00,
2013-12-13 14:27:00,51.4,44.1,29.72,WSW,248,6.0,11.0,76,0.00,,,0.03,meteohub,2013-12-13 14:27:00,
2013-12-13 14:32:00,51.6,44.2,29.72,WSW,248,4.0,11.0,76,0.00,,,0.03,meteohub,2013-12-13 14:32:00,
2013-12-13 14:37:00,51.6,43.9,29.72,WSW,248,8.0,11.0,75,0.00,,,0.03,meteohub,2013-12-13 14:37:00,
2013-12-13 14:42:00,51.6,43.9,29.72,SW,225,4.0,10.0,75,0.00,,,0.03,meteohub,2013-12-13 14:42:00,
2013-12-13 14:47:00,51.6,43.9,29.72,SSW,202,10.0,10.0,75,0.00,,,0.03,meteohub,2013-12-13 14:47:00,
2013-12-13 14:52:00,51.8,43.5,29.72,SSW,202,10.0,10.0,73,0.00,,,0.03,meteohub,2013-12-13 14:52:00,
2013-12-13 14:57:00,51.8,42.8,29.72,SSW,202,9.0,11.0,71,0.00,,,0.03,meteohub,2013-12-13 14:57:00,
2013-12-13 15:02:00,51.8,42.3,29.72,SSW,202,8.0,13.0,70,0.00,,,0.03,meteohub,2013-12-13 15:02:00,
2013-12-13 15:07:00,51.6,41.4,29.72,SSW,202,8.0,13.0,68,0.00,,,0.03,meteohub,2013-12-13 15:07:00,
2013-12-13 15:12:00,51.4,40.5,29.75,SSW,202,9.0,13.0,66,0.00,,,0.03,meteohub,2013-12-13 15:12:00,
2013-12-13 15:18:00,51.3,39.9,29.75,SSW,202,12.0,15.0,65,0.00,,,0.03,meteohub,2013-12-13 15:18:00,
2013-12-13 15:23:00,51.1,38.5,29.75,SSW,202,20.0,20.0,62,0.00,,,0.03,meteohub,2013-12-13 15:23:00,
2013-12-13 15:28:00,51.1,37.2,29.75,SW,225,11.0,20.0,59,0.00,,,0.03,meteohub,2013-12-13 15:28:00,
2013-12-13 15:33:00,50.7,36.5,29.75,WNW,292,13.0,20.0,58,0.00,,,0.03,meteohub,2013-12-13 15:33:00,
2013-12-13 15:38:00,50.5,36.3,29.75,SW,225,13.0,20.0,58,0.00,,,0.03,meteohub,2013-12-13 15:38:00,
2013-12-13 15:43:00,50.2,36.0,29.75,WSW,248,12.0,19.0,58,0.00,,,0.03,meteohub,2013-12-13 15:43:00,
2013-12-13 15:48:00,50.2,36.0,29.75,SW,225,11.0,19.0,58,0.00,,,0.03,meteohub,2013-12-13 15:48:00,
2013-12-13 15:53:00,50.0,36.3,29.75,SSW,202,13.0,19.0,59,0.00,,,0.03,meteohub,2013-12-13 15:53:00,
2013-12-13 15:58:00,49.6,36.3,29.75,SSW,202,11.0,16.0,60,0.00,,,0.03,meteohub,2013-12-13 15:58:00,
2013-12-13 16:03:00,49.5,36.7,29.75,SSW,202,13.0,16.0,61,0.00,,,0.03,meteohub,2013-12-13 16:03:00,
2013-12-13 16:08:00,49.3,36.5,29.75,SSW,202,10.0,13.0,61,0.00,,,0.03,meteohub,2013-12-13 16:08:00,
2013-12-13 16:13:00,49.3,36.5,29.75,SSW,202,11.0,13.0,61,0.00,,,0.03,meteohub,2013-12-13 16:13:00,
2013-12-13 16:18:00,49.1,36.7,29.75,WSW,248,6.0,13.0,62,0.00,,,0.03,meteohub,2013-12-13 16:18:00,
2013-12-13 16:23:00,48.7,36.7,29.75,WSW,248,7.0,13.0,63,0.00,,,0.03,meteohub,2013-12-13 16:23:00,
2013-12-13 16:28:00,48.7,37.2,29.75,SW,225,6.0,10.0,64,0.00,,,0.03,meteohub,2013-12-13 16:28:00,
2013-12-13 16:33:00,48.7,37.6,29.75,SSW,202,11.0,13.0,65,0.00,,,0.03,meteohub,2013-12-13 16:33:00,
2013-12-13 16:38:00,48.6,37.4,29.75,SW,225,7.0,13.0,65,0.00,,,0.03,meteohub,2013-12-13 16:38:00,
2013-12-13 16:44:00,48.4,37.6,29.75,SW,225,6.0,13.0,66,0.00,,,0.03,meteohub,2013-12-13 16:44:00,
2013-12-13 16:49:00,48.4,37.9,29.75,SW,225,9.0,12.0,67,0.00,,,0.03,meteohub,2013-12-13 16:49:00,
2013-12-13 16:54:00,48.0,37.9,29.75,SW,225,10.0,12.0,68,0.00,,,0.03,meteohub,2013-12-13 16:54:00,
2013-12-13 16:59:00,48.0,37.9,29.75,SSW,202,11.0,13.0,68,0.00,,,0.03,meteohub,2013-12-13 16:59:00,
2013-12-13 17:04:00,48.2,37.4,29.75,WSW,248,10.0,13.0,66,0.00,,,0.03,meteohub,2013-12-13 17:04:00,
2013-12-13 17:09:00,48.2,37.0,29.75,SW,225,8.0,15.0,65,0.00,,,0.03,meteohub,2013-12-13 17:09:00,
2013-12-13 17:14:00,48.0,36.9,29.78,SW,225,8.0,15.0,65,0.00,,,0.03,meteohub,2013-12-13 17:14:00,
2013-12-13 17:19:00,48.0,36.5,29.78,SSW,202,10.0,15.0,64,0.00,,,0.03,meteohub,2013-12-13 17:19:00,
2013-12-13 17:24:00,47.8,35.4,29.78,WSW,248,13.0,13.0,62,0.00,,,0.03,meteohub,2013-12-13 17:24:00,
2013-12-13 17:29:00,47.8,35.1,29.78,SSW,202,6.0,13.0,61,0.00,,,0.03,meteohub,2013-12-13 17:29:00,
2013-12-13 17:34:00,47.7,34.9,29.78,SW,225,10.0,13.0,61,0.00,,,0.03,meteohub,2013-12-13 17:34:00,
2013-12-13 17:39:00,47.7,34.5,29.78,SW,225,7.0,13.0,60,0.00,,,0.03,meteohub,2013-12-13 17:39:00,
2013-12-13 17:44:00,47.7,34.5,29.78,SSW,202,8.0,13.0,60,0.00,,,0.03,meteohub,2013-12-13 17:44:00,
2013-12-13 17:49:00,47.5,34.3,29.78,SSW,202,6.0,13.0,60,0.00,,,0.03,meteohub,2013-12-13 17:49:00,
2013-12-13 17:54:00,47.5,34.0,29.78,SSW,202,10.0,13.0,59,0.00,,,0.03,meteohub,2013-12-13 17:54:00,
2013-12-13 17:59:00,47.3,33.8,29.78,SSW,202,13.0,13.0,59,0.00,,,0.03,meteohub,2013-12-13 17:59:00,
2013-12-13 18:04:00,47.5,34.0,29.78,SSW,202,6.0,13.0,59,0.00,,,0.03,meteohub,2013-12-13 18:04:00,
2013-12-13 18:10:00,47.3,33.8,29.78,SSW,202,8.0,13.0,59,0.00,,,0.03,meteohub,2013-12-13 18:10:00,
2013-12-13 18:15:00,47.3,33.8,29.78,SSW,202,8.0,13.0,59,0.00,,,0.03,meteohub,2013-12-13 18:15:00,
2013-12-13 18:20:00,47.3,34.2,29.78,SSW,202,8.0,11.0,60,0.00,,,0.03,meteohub,2013-12-13 18:20:00,
2013-12-13 18:25:00,47.1,34.0,29.78,SSW,202,6.0,10.0,60,0.00,,,0.03,meteohub,2013-12-13 18:25:00,
2013-12-13 18:30:00,47.1,34.0,29.78,SSW,202,6.0,10.0,60,0.00,,,0.03,meteohub,2013-12-13 18:30:00,
2013-12-13 18:35:00,47.1,34.3,29.78,SSW,202,8.0,11.0,61,0.00,,,0.03,meteohub,2013-12-13 18:35:00,
2013-12-13 18:40:00,46.9,34.7,29.78,SSW,202,8.0,11.0,62,0.00,,,0.03,meteohub,2013-12-13 18:40:00,
2013-12-13 18:45:00,46.9,35.1,29.78,SSW,202,10.0,11.0,63,0.00,,,0.03,meteohub,2013-12-13 18:45:00,
2013-12-13 18:50:00,46.9,35.4,29.78,South,180,10.0,11.0,64,0.00,,,0.03,meteohub,2013-12-13 18:50:00,
2013-12-13 18:55:00,46.9,35.4,29.78,South,180,6.0,14.0,64,0.00,,,0.03,meteohub,2013-12-13 18:55:00,
2013-12-13 19:00:00,46.9,35.8,29.78,SW,225,6.0,14.0,65,0.00,,,0.03,meteohub,2013-12-13 19:00:00,
2013-12-13 19:05:00,46.6,34.3,29.78,WSW,248,8.0,16.0,62,0.00,,,0.03,meteohub,2013-12-13 19:05:00,
2013-12-13 19:10:00,46.6,33.8,29.78,SSW,202,10.0,16.0,61,0.00,,,0.03,meteohub,2013-12-13 19:10:00,
2013-12-13 19:15:00,46.2,32.7,29.78,SW,225,5.0,16.0,59,0.00,,,0.03,meteohub,2013-12-13 19:15:00,
2013-12-13 19:20:00,45.9,32.4,29.78,SSW,202,10.0,12.0,59,0.00,,,0.03,meteohub,2013-12-13 19:20:00,
2013-12-13 19:25:00,45.9,32.4,29.78,SSW,202,9.0,13.0,59,0.00,,,0.03,meteohub,2013-12-13 19:25:00,
2013-12-13 19:30:00,45.7,32.2,29.78,SW,225,8.0,15.0,59,0.00,,,0.03,meteohub,2013-12-13 19:30:00,
2013-12-13 19:36:00,45.5,32.5,29.78,SSW,202,10.0,15.0,60,0.00,,,0.03,meteohub,2013-12-13 19:36:00,
2013-12-13 19:41:00,45.5,32.5,29.81,WSW,248,7.0,17.0,60,0.00,,,0.03,meteohub,2013-12-13 19:41:00,
2013-12-13 19:46:00,45.3,32.4,29.81,SSW,202,7.0,17.0,60,0.00,,,0.03,meteohub,2013-12-13 19:46:00,
2013-12-13 19:51:00,45.3,32.4,29.81,SSW,202,6.0,17.0,60,0.00,,,0.03,meteohub,2013-12-13 19:51:00,
2013-12-13 19:56:00,45.1,32.2,29.81,SSW,202,13.0,15.0,60,0.00,,,0.03,meteohub,2013-12-13 19:56:00,
2013-12-13 20:01:00,45.0,32.4,29.81,SW,225,10.0,15.0,61,0.00,,,0.03,meteohub,2013-12-13 20:01:00,
2013-12-13 20:06:00,45.0,32.4,29.81,WSW,248,9.0,14.0,61,0.00,,,0.03,meteohub,2013-12-13 20:06:00,
2013-12-13 20:11:00,45.0,32.7,29.81,SSW,202,10.0,14.0,62,0.00,,,0.03,meteohub,2013-12-13 20:11:00,
2013-12-13 20:16:00,44.8,32.5,29.81,SSW,202,10.0,14.0,62,0.00,,,0.03,meteohub,2013-12-13 20:16:00,
2013-12-13 20:21:00,44.8,32.9,29.81,SSW,202,11.0,13.0,63,0.00,,,0.03,meteohub,2013-12-13 20:21:00,
2013-12-13 20:27:00,44.8,33.4,29.81,SSW,202,11.0,13.0,64,0.00,,,0.03,meteohub,2013-12-13 20:27:00,
2013-12-13 20:32:00,44.6,33.3,29.81,SSW,202,8.0,15.0,64,0.00,,,0.03,meteohub,2013-12-13 20:32:00,
2013-12-13 20:37:00,44.6,33.3,29.81,SSW,202,10.0,15.0,64,0.00,,,0.03,meteohub,2013-12-13 20:37:00,
2013-12-13 20:42:00,44.4,33.1,29.81,SSW,202,11.0,15.0,64,0.00,,,0.03,meteohub,2013-12-13 20:42:00,
2013-12-13 20:47:00,44.2,32.9,29.81,SW,225,9.0,15.0,64,0.00,,,0.03,meteohub,2013-12-13 20:47:00,
2013-12-13 20:52:00,44.2,33.3,29.81,SW,225,8.0,14.0,65,0.00,,,0.03,meteohub,2013-12-13 20:52:00,
2013-12-13 20:57:00,44.1,33.1,29.81,SSW,202,8.0,13.0,65,0.00,,,0.03,meteohub,2013-12-13 20:57:00,
2013-12-13 21:02:00,44.1,33.1,29.81,SSW,202,7.0,15.0,65,0.00,,,0.03,meteohub,2013-12-13 21:02:00,
2013-12-13 21:07:00,44.1,33.1,29.81,SSW,202,8.0,15.0,65,0.00,,,0.03,meteohub,2013-12-13 21:07:00,
2013-12-13 21:12:00,44.1,33.1,29.81,SW,225,13.0,15.0,65,0.00,,,0.03,meteohub,2013-12-13 21:12:00,
2013-12-13 21:17:00,44.1,33.1,29.81,WSW,248,6.0,13.0,65,0.00,,,0.03,meteohub,2013-12-13 21:17:00,
2013-12-13 21:22:00,43.9,32.9,29.81,SW,225,8.0,13.0,65,0.00,,,0.03,meteohub,2013-12-13 21:22:00,
2013-12-13 21:27:00,43.7,32.4,29.84,SW,225,6.0,13.0,64,0.00,,,0.03,meteohub,2013-12-13 21:27:00,
2013-12-13 21:32:00,43.7,32.4,29.84,SSW,202,13.0,13.0,64,0.00,,,0.03,meteohub,2013-12-13 21:32:00,
2013-12-13 21:38:00,43.7,32.0,29.84,SSW,202,7.0,13.0,63,0.00,,,0.03,meteohub,2013-12-13 21:38:00,
2013-12-13 21:43:00,43.5,31.8,29.81,SW,225,5.0,13.0,63,0.00,,,0.03,meteohub,2013-12-13 21:43:00,
2013-12-13 21:48:00,43.5,31.8,29.81,SW,225,10.0,13.0,63,0.00,,,0.03,meteohub,2013-12-13 21:48:00,
2013-12-13 21:53:00,43.3,31.6,29.81,SSW,202,11.0,13.0,63,0.00,,,0.03,meteohub,2013-12-13 21:53:00,
2013-12-13 21:58:00,43.3,32.0,29.81,SW,225,13.0,13.0,64,0.00,,,0.03,meteohub,2013-12-13 21:58:00,
2013-12-13 22:03:00,43.2,31.8,29.81,SSW,202,8.0,13.0,64,0.00,,,0.03,meteohub,2013-12-13 22:03:00,
2013-12-13 22:08:00,43.2,31.8,29.81,SSW,202,8.0,13.0,64,0.00,,,0.03,meteohub,2013-12-13 22:08:00,
2013-12-13 22:13:00,43.2,31.5,29.81,SSW,202,13.0,15.0,63,0.00,,,0.03,meteohub,2013-12-13 22:13:00,
2013-12-13 22:18:00,43.2,31.5,29.81,WSW,248,10.0,15.0,63,0.00,,,0.03,meteohub,2013-12-13 22:18:00,
2013-12-13 22:23:00,43.0,31.3,29.81,SSW,202,13.0,15.0,63,0.00,,,0.03,meteohub,2013-12-13 22:23:00,
2013-12-13 22:28:00,43.0,31.6,29.84,SSW,202,7.0,15.0,64,0.00,,,0.03,meteohub,2013-12-13 22:28:00,
2013-12-13 22:33:00,43.0,31.6,29.84,SSW,202,6.0,15.0,64,0.00,,,0.03,meteohub,2013-12-13 22:33:00,
2013-12-13 22:38:00,43.0,31.6,29.84,SSW,202,12.0,13.0,64,0.00,,,0.03,meteohub,2013-12-13 22:38:00,
2013-12-13 22:43:00,43.0,31.6,29.84,WSW,248,11.0,13.0,64,0.00,,,0.03,meteohub,2013-12-13 22:43:00,
2013-12-13 22:48:00,43.0,31.6,29.84,South,180,8.0,13.0,64,0.00,,,0.03,meteohub,2013-12-13 22:48:00,
2013-12-13 22:54:00,43.0,31.6,29.84,SW,225,9.0,13.0,64,0.00,,,0.03,meteohub,2013-12-13 22:54:00,
2013-12-13 22:59:00,43.0,32.0,29.84,SW,225,6.0,13.0,65,0.00,,,0.03,meteohub,2013-12-13 22:59:00,
2013-12-13 23:04:00,43.0,32.0,29.84,WSW,248,8.0,12.0,65,0.00,,,0.03,meteohub,2013-12-13 23:04:00,
2013-12-13 23:09:00,43.0,32.7,29.84,SW,225,9.0,12.0,67,0.00,,,0.03,meteohub,2013-12-13 23:09:00,
2013-12-13 23:14:00,43.0,32.7,29.84,SSW,202,6.0,11.0,67,0.00,,,0.03,meteohub,2013-12-13 23:14:00,
2013-12-13 23:19:00,43.0,33.1,29.84,WSW,248,3.0,11.0,68,0.00,,,0.03,meteohub,2013-12-13 23:19:00,
2013-12-13 23:24:00,43.2,33.3,29.84,WSW,248,10.0,11.0,68,0.00,,,0.03,meteohub,2013-12-13 23:24:00,
2013-12-13 23:29:00,43.3,33.4,29.84,SW,225,11.0,13.0,68,0.00,,,0.03,meteohub,2013-12-13 23:29:00,
2013-12-13 23:34:00,43.3,33.4,29.84,WSW,248,8.0,13.0,68,0.00,,,0.03,meteohub,2013-12-13 23:34:00,
2013-12-13 23:39:00,43.5,33.3,29.84,SSW,202,10.0,13.0,67,0.00,,,0.03,meteohub,2013-12-13 23:39:00,
2013-12-13 23:44:00,43.5,32.9,29.84,WSW,248,15.0,15.0,66,0.00,,,0.03,meteohub,2013-12-13 23:44:00,
2013-12-13 23:49:00,43.7,32.4,29.84,SSW,202,7.0,17.0,64,0.00,,,0.03,meteohub,2013-12-13 23:49:00,
2013-12-13 23:54:00,43.7,32.4,29.84,SW,225,7.0,17.0,64,0.00,,,0.03,meteohub,2013-12-13 23:54:00,
2013-12-13 23:59:00,43.7,32.0,29.84,WSW,248,8.0,17.0,63,0.00,,,0.03,meteohub,2013-12-13 23:59:00,